KC3SRB Weather Reports


Display with metric or nautical units.
time (UTC)temp
F
wind
direction
speed
MPH
gust
MPH
rain 1hr
in
rain 24hr
in
rain mn
in
humidity
%
barometer
mb
20260505163102 78 306 5.0 17.0 0.00 0.00 0.00 39 1009.6
20260505161615 78 315 5.0 13.0 0.00 0.00 0.00 41 1009.9
20260505153101 76 336 4.0 12.0 0.00 0.00 0.00 46 1009.8
20260505151604 75 258 3.0 9.0 0.00 0.00 0.00 48 1009.9
20260505130110 66 239 1.0 4.0 0.00 0.00 0.00 61 1011.1
20260505124602 64 222 1.0 4.0 0.00 0.00 0.00 65 1011.2
20260505123101 63 0 1.0 4.0 0.00 0.00 0.00 66 1011.0
20260505121552 62 246 0.0 2.0 0.00 0.00 0.00 67 1011.1
20260505120107 61 0 0.0 2.0 0.00 0.00 0.00 68 1010.9
20260505114552 60 0 0.0 2.0 0.00 0.00 0.00 69 1010.8
20260505113054 60 0 0.0 1.0 0.00 0.00 0.00 70 1010.6
20260505111550 58 0 0.0 0.0 0.00 0.00 0.00 76 1010.4
20260505101552 55 0 0.0 2.0 0.00 0.00 0.00 76 1010.2
20260505100051 56 0 0.0 0.0 0.00 0.00 0.00 76 1010.0
20260505094555 56 0 0.0 0.0 0.00 0.00 0.00 75 1009.8
20260505093107 57 0 0.0 0.0 0.00 0.00 0.00 74 1009.7
20260505091554 57 0 0.0 0.0 0.00 0.00 0.00 72 1009.7
20260505090053 58 0 0.0 0.0 0.00 0.00 0.00 71 1009.7
20260505084551 58 0 0.0 0.0 0.00 0.00 0.00 70 1009.8
20260505083054 57 0 0.0 0.0 0.00 0.00 0.00 70 1009.7
20260505081554 58 0 0.0 0.0 0.00 0.00 0.00 70 1009.7
20260505080050 58 0 0.0 0.0 0.00 0.00 0.00 69 1009.6
20260505074553 58 0 0.0 0.0 0.00 0.00 0.00 69 1009.5
20260505073052 58 0 0.0 0.0 0.00 0.00 0.00 68 1009.4
20260505071554 59 0 0.0 0.0 0.00 0.00 0.00 67 1009.3
20260505070056 60 0 0.0 0.0 0.00 0.00 0.00 66 1009.4
20260505064556 61 0 0.0 2.0 0.00 0.00 0.00 64 1009.3
20260505063056 61 0 0.0 2.0 0.00 0.00 0.00 63 1009.5
20260505061552 61 0 0.0 2.0 0.00 0.00 0.00 64 1009.6
20260505060053 61 0 0.0 2.0 0.00 0.00 0.00 65 1009.5
20260505054556 61 41 1.0 2.0 0.00 0.00 0.00 63 1009.5
20260505053104 62 41 0.0 2.0 0.00 0.00 0.00 61 1009.6
20260505051557 63 0 0.0 0.0 0.00 0.00 0.00 59 1009.5
20260505041555 63 340 1.0 3.0 0.00 0.00 0.00 56 1009.3
20260505040054 62 322 1.0 4.0 0.00 0.00 0.00 56 1009.3
20260505034553 61 360 1.0 3.0 0.00 0.00 0.00 58 1009.4
20260505033051 61 40 1.0 2.0 0.00 0.00 0.00 59 1009.1
20260505031549 61 24 1.0 3.0 0.00 0.00 0.00 58 1009.3
20260505030050 62 51 1.0 2.0 0.00 0.00 0.00 56 1009.3
20260505024552 62 51 1.0 2.0 0.00 0.00 0.00 55 1009.3
20260505023057 62 0 1.0 3.0 0.00 0.00 0.00 54 1009.1
20260505021549 63 49 1.0 2.0 0.00 0.00 0.00 54 1009.2
20260505020055 63 47 1.0 3.0 0.00 0.00 0.00 52 1009.2
20260505014547 64 66 0.0 2.0 0.00 0.00 0.00 51 1009.2
20260505013047 64 59 1.0 3.0 0.00 0.00 0.00 50 1009.0
20260505011554 65 32 1.0 3.0 0.00 0.00 0.00 49 1009.1
20260505010100 65 45 1.0 3.0 0.00 0.00 0.00 50 1008.8
20260505004552 65 45 1.0 3.0 0.00 0.00 0.00 50 1008.7
20260505003050 66 51 1.0 2.0 0.00 0.00 0.00 49 1008.5
20260505001553 68 51 1.0 2.0 0.00 0.00 0.00 46 1008.4
20260505000105 69 0 0.0 6.0 0.00 0.00 0.00 41 1008.3
20260504234549 70 274 1.0 8.0 0.00 0.00 0.00 40 1008.2
20260504233054 70 296 2.0 8.0 0.00 0.00 0.00 40 1008.1
20260504231551 71 278 4.0 12.0 0.00 0.00 0.00 39 1008.1
20260504230057 71 273 3.0 12.0 0.00 0.00 0.00 39 1007.9
20260504224554 71 279 2.0 17.0 0.00 0.00 0.00 40 1008.0
20260504223048 71 250 5.0 13.0 0.00 0.00 0.00 39 1008.2
20260504221551 72 271 4.0 13.0 0.00 0.00 0.00 39 1008.1
20260504220111 72 352 4.0 17.0 0.00 0.00 0.00 38 1008.4
20260504214555 72 277 5.0 13.0 0.00 0.00 0.00 38 1008.3
20260504213059 72 329 5.0 12.0 0.00 0.00 0.00 37 1008.3
20260504211555 72 11 3.0 10.0 0.00 0.00 0.00 38 1008.3
20260504210052 72 267 3.0 13.0 0.00 0.00 0.00 38 1008.2
20260504204552 72 272 4.0 11.0 0.00 0.00 0.00 38 1008.2
20260504203055 72 283 3.0 13.0 0.00 0.00 0.00 37 1008.3
20260504201551 72 318 2.0 9.0 0.00 0.00 0.00 37 1008.6
20260504200057 73 297 3.0 9.0 0.00 0.00 0.00 36 1008.8
20260504194552 73 266 4.0 11.0 0.00 0.00 0.00 38 1009.0
20260504193054 73 274 2.0 11.0 0.00 0.00 0.00 38 1009.3
20260504191600 73 117 3.0 8.0 0.00 0.00 0.00 38 1009.4
20260504190110 71 223 4.0 12.0 0.00 0.00 0.00 38 1009.8
20260504184611 71 287 3.0 9.0 0.00 0.00 0.00 42 1010.0
20260504183054 70 254 3.0 14.0 0.00 0.00 0.00 38 1010.2
20260504181555 70 263 3.0 10.0 0.00 0.00 0.00 40 1010.3
20260504174550 69 122 3.0 8.0 0.00 0.00 0.00 38 1010.8
20260504173052 69 266 4.0 13.0 0.00 0.00 0.00 39 1010.9
20260504171549 69 117 3.0 10.0 0.00 0.00 0.00 37 1011.0